Time,TemperatureF,DewpointF,PressureIn,WindDirection,WindDirectionDegrees,WindSpeedMPH,WindSpeedGustMPH,Humidity,HourlyPrecipIn,Conditions,Clouds,dailyrainin,SoftwareType,DateUTC
2013-03-27 00:03:00,33.0,25.0,-100.00,North,10,0.0,1.0,69,0.00,,,-99.99,,2013-03-27 04:03:00,
2013-03-27 00:13:00,33.0,25.0,-100.00,NE,45,1.0,1.0,69,0.00,,,-99.99,,2013-03-27 04:13:00,
2013-03-27 00:23:00,33.0,24.0,-100.00,NNE,20,1.0,1.0,69,0.00,,,-99.99,,2013-03-27 04:23:00,
2013-03-27 00:33:00,33.0,25.0,-100.00,North,0,1.0,1.0,70,0.00,,,-99.99,,2013-03-27 04:33:00,
2013-03-27 00:42:00,33.0,25.0,-100.00,North,0,0.0,1.0,70,0.00,,,-99.99,,2013-03-27 04:42:00,
2013-03-27 00:52:00,33.0,25.0,-100.00,North,-999,-999.0,-999.0,72,0.00,,,-99.99,,2013-03-27 04:52:00,
2013-03-27 01:03:00,33.0,25.0,-100.00,North,0,1.0,2.0,72,0.00,,,-99.99,,2013-03-27 05:03:00,
2013-03-27 01:12:00,33.0,25.0,-100.00,North,350,1.0,1.0,72,0.00,,,-99.99,,2013-03-27 05:12:00,
2013-03-27 01:23:00,33.0,25.0,-100.00,NW,325,1.0,1.0,72,0.00,,,-99.99,,2013-03-27 05:23:00,
2013-03-27 01:33:00,32.0,25.0,-100.00,NNW,340,1.0,2.0,72,0.00,,,-99.99,,2013-03-27 05:33:00,
2013-03-27 01:42:00,32.0,25.0,-100.00,North,-999,-999.0,-999.0,72,0.00,,,-99.99,,2013-03-27 05:42:00,
2013-03-27 02:02:00,32.0,25.0,-100.00,NNE,30,0.0,1.0,73,0.00,,,-99.99,,2013-03-27 06:02:00,
2013-03-27 02:12:00,32.0,24.0,-100.00,North,5,1.0,1.0,74,0.00,,,-99.99,,2013-03-27 06:12:00,
2013-03-27 02:22:00,32.0,25.0,-100.00,North,5,1.0,1.0,74,0.00,,,-99.99,,2013-03-27 06:22:00,
2013-03-27 02:32:00,32.0,25.0,-100.00,NNE,30,1.0,1.0,74,0.00,,,-99.99,,2013-03-27 06:32:00,
2013-03-27 02:42:00,32.0,25.0,-100.00,NE,45,1.0,2.0,74,0.00,,,-99.99,,2013-03-27 06:42:00,
2013-03-27 02:52:00,32.0,25.0,-100.00,North,0,1.0,2.0,74,0.00,,,-99.99,,2013-03-27 06:52:00,
2013-03-27 03:02:00,32.0,25.0,-100.00,North,10,1.0,1.0,74,0.00,,,-99.99,,2013-03-27 07:02:00,
2013-03-27 03:12:00,32.0,24.0,-100.00,North,0,1.0,1.0,73,0.00,,,-99.99,,2013-03-27 07:12:00,
2013-03-27 03:22:00,32.0,24.0,-100.00,North,0,1.0,1.0,73,0.00,,,-99.99,,2013-03-27 07:22:00,
2013-03-27 03:32:00,32.0,24.0,-100.00,North,10,0.0,1.0,74,0.00,,,-99.99,,2013-03-27 07:32:00,
2013-03-27 03:42:00,32.0,24.0,-100.00,NNW,340,0.0,2.0,74,0.00,,,-99.99,,2013-03-27 07:42:00,
2013-03-27 04:02:00,32.0,25.0,-100.00,North,5,1.0,6.0,73,0.00,,,-99.99,,2013-03-27 08:02:00,
2013-03-27 04:12:00,31.0,24.0,-100.00,NNE,20,1.0,1.0,73,0.00,,,-99.99,,2013-03-27 08:12:00,
2013-03-27 04:22:00,31.0,24.0,-100.00,North,-999,-999.0,-999.0,74,0.00,,,-99.99,,2013-03-27 08:22:00,
2013-03-27 04:32:00,31.0,24.0,-100.00,North,5,1.0,2.0,74,0.00,,,-99.99,,2013-03-27 08:32:00,
2013-03-27 04:43:00,31.0,24.0,-100.00,North,10,1.0,1.0,74,0.00,,,-99.99,,2013-03-27 08:43:00,
2013-03-27 04:52:00,31.0,24.0,-100.00,North,5,1.0,2.0,73,0.00,,,-99.99,,2013-03-27 08:52:00,
2013-03-27 05:02:00,31.0,24.0,-100.00,WNW,290,1.0,2.0,73,0.00,,,-99.99,,2013-03-27 09:02:00,
2013-03-27 05:12:00,31.0,24.0,-100.00,NNE,30,0.0,2.0,73,0.00,,,-99.99,,2013-03-27 09:12:00,
2013-03-27 05:22:00,31.0,24.0,-100.00,North,10,1.0,1.0,73,0.00,,,-99.99,,2013-03-27 09:22:00,
2013-03-27 05:32:00,31.0,24.0,-100.00,North,10,1.0,4.0,73,0.00,,,-99.99,,2013-03-27 09:32:00,
2013-03-27 05:42:00,31.0,24.0,-100.00,NNE,15,1.0,2.0,73,0.00,,,-99.99,,2013-03-27 09:42:00,
2013-03-27 05:52:00,31.0,23.0,-100.00,North,350,1.0,2.0,74,0.00,,,-99.99,,2013-03-27 09:52:00,
2013-03-27 06:03:00,31.0,23.0,-100.00,North,5,1.0,4.0,73,0.00,,,-99.99,,2013-03-27 10:03:00,
2013-03-27 06:12:00,31.0,23.0,-100.00,NE,55,1.0,4.0,73,0.00,,,-99.99,,2013-03-27 10:12:00,
2013-03-27 06:23:00,31.0,23.0,-100.00,NE,45,1.0,1.0,73,0.00,,,-99.99,,2013-03-27 10:23:00,
2013-03-27 06:32:00,30.0,23.0,-100.00,NE,45,1.0,1.0,74,0.00,,,-99.99,,2013-03-27 10:32:00,
2013-03-27 06:42:00,30.0,23.0,-100.00,NE,35,1.0,1.0,74,0.00,,,-99.99,,2013-03-27 10:42:00,
2013-03-27 06:52:00,30.0,23.0,-100.00,NE,45,1.0,1.0,74,0.00,,,-99.99,,2013-03-27 10:52:00,
2013-03-27 07:02:00,30.0,23.0,-100.00,NNE,15,1.0,1.0,74,0.00,,,-99.99,,2013-03-27 11:02:00,
2013-03-27 07:12:00,30.0,23.0,-100.00,North,10,1.0,2.0,74,0.00,,,-99.99,,2013-03-27 11:12:00,
2013-03-27 07:22:00,31.0,23.0,-100.00,NNW,335,1.0,2.0,74,0.00,,,-99.99,,2013-03-27 11:22:00,
2013-03-27 07:32:00,31.0,24.0,-100.00,North,10,1.0,1.0,74,0.00,,,-99.99,,2013-03-27 11:32:00,
2013-03-27 07:42:00,30.0,24.0,-100.00,East,80,1.0,1.0,75,0.00,,,-99.99,,2013-03-27 11:42:00,
2013-03-27 07:52:00,31.0,24.0,-100.00,North,-999,-999.0,-999.0,75,0.00,,,-99.99,,2013-03-27 11:52:00,
2013-03-27 08:02:00,32.0,25.0,-100.00,NE,45,0.0,1.0,75,0.00,,,-99.99,,2013-03-27 12:02:00,
2013-03-27 08:12:00,34.0,26.0,-100.00,NW,315,0.0,1.0,73,0.00,,,-99.99,,2013-03-27 12:12:00,
2013-03-27 08:23:00,35.0,27.0,-100.00,North,0,1.0,3.0,71,0.00,,,-99.99,,2013-03-27 12:23:00,
2013-03-27 08:32:00,36.0,24.0,-100.00,East,90,1.0,3.0,61,0.00,,,-99.99,,2013-03-27 12:32:00,
2013-03-27 08:43:00,38.0,23.0,-100.00,West,270,2.0,5.0,53,0.00,,,-99.99,,2013-03-27 12:43:00,
2013-03-27 08:52:00,40.0,23.0,-100.00,NNW,330,1.0,7.0,51,0.00,,,-99.99,,2013-03-27 12:52:00,
2013-03-27 09:02:00,40.0,23.0,-100.00,WSW,250,2.0,6.0,49,0.00,,,-99.99,,2013-03-27 13:02:00,
2013-03-27 09:12:00,41.0,23.0,-100.00,SW,235,2.0,5.0,49,0.00,,,-99.99,,2013-03-27 13:12:00,
2013-03-27 09:22:00,42.0,24.0,-100.00,SW,215,2.0,8.0,48,0.00,,,-99.99,,2013-03-27 13:22:00,
2013-03-27 09:32:00,43.0,24.0,-100.00,South,170,2.0,7.0,46,0.00,,,-99.99,,2013-03-27 13:32:00,
2013-03-27 09:42:00,44.0,24.0,-100.00,SW,220,4.0,9.0,44,0.00,,,-99.99,,2013-03-27 13:42:00,
2013-03-27 10:02:00,45.0,24.0,-100.00,WSW,240,4.0,11.0,42,0.00,,,-99.99,,2013-03-27 14:02:00,
2013-03-27 10:12:00,46.0,24.0,-100.00,SW,225,3.0,8.0,41,0.00,,,-99.99,,2013-03-27 14:12:00,
2013-03-27 10:22:00,46.0,24.0,-100.00,WNW,290,4.0,9.0,40,0.00,,,-99.99,,2013-03-27 14:22:00,
2013-03-27 10:32:00,47.0,24.0,-100.00,West,270,4.0,11.0,40,0.00,,,-99.99,,2013-03-27 14:32:00,
2013-03-27 10:42:00,47.0,24.0,-100.00,West,280,4.0,11.0,39,0.00,,,-99.99,,2013-03-27 14:42:00,
2013-03-27 10:52:00,48.0,24.0,-100.00,SW,230,2.0,11.0,38,0.00,,,-99.99,,2013-03-27 14:52:00,
2013-03-27 11:02:00,48.0,24.0,-100.00,West,280,5.0,9.0,38,0.00,,,-99.99,,2013-03-27 15:02:00,
2013-03-27 11:12:00,49.0,24.0,-100.00,ENE,65,2.0,11.0,37,0.00,,,-99.99,,2013-03-27 15:12:00,
2013-03-27 11:22:00,49.0,24.0,-100.00,WSW,255,4.0,9.0,38,0.00,,,-99.99,,2013-03-27 15:22:00,
2013-03-27 11:33:00,49.0,25.0,-100.00,WSW,245,5.0,11.0,38,0.00,,,-99.99,,2013-03-27 15:33:00,
2013-03-27 11:42:00,50.0,24.0,-100.00,West,275,2.0,11.0,36,0.00,,,-99.99,,2013-03-27 15:42:00,
2013-03-27 11:52:00,49.0,25.0,-100.00,NW,305,7.0,18.0,37,0.00,,,-99.99,,2013-03-27 15:52:00,
2013-03-27 12:03:00,50.0,25.0,-100.00,West,275,6.0,19.0,37,0.00,,,-99.99,,2013-03-27 16:03:00,
2013-03-27 12:13:00,50.0,25.0,-100.00,WNW,285,7.0,15.0,37,0.00,,,-99.99,,2013-03-27 16:13:00,
2013-03-27 12:22:00,50.0,24.0,-100.00,West,280,9.0,16.0,36,0.00,,,-99.99,,2013-03-27 16:22:00,
2013-03-27 12:32:00,50.0,24.0,-100.00,WNW,295,9.0,16.0,36,0.00,,,-99.99,,2013-03-27 16:32:00,
2013-03-27 12:42:00,51.0,24.0,-100.00,WNW,285,6.0,14.0,35,0.00,,,-99.99,,2013-03-27 16:42:00,
2013-03-27 12:52:00,50.0,24.0,-100.00,West,265,8.0,20.0,36,0.00,,,-99.99,,2013-03-27 16:52:00,
2013-03-27 13:03:00,51.0,25.0,-100.00,West,280,4.0,17.0,35,0.00,,,-99.99,,2013-03-27 17:03:00,
2013-03-27 13:12:00,51.0,25.0,-100.00,NW,315,6.0,20.0,36,0.00,,,-99.99,,2013-03-27 17:12:00,
2013-03-27 13:22:00,50.0,25.0,-100.00,West,260,6.0,17.0,36,0.00,,,-99.99,,2013-03-27 17:22:00,
2013-03-27 13:32:00,51.0,25.0,-100.00,NW,310,7.0,19.0,36,0.00,,,-99.99,,2013-03-27 17:32:00,
2013-03-27 13:44:00,50.0,25.0,-100.00,West,280,7.0,24.0,36,0.00,,,-99.99,,2013-03-27 17:44:00,
2013-03-27 14:02:00,51.0,25.0,-100.00,WNW,295,7.0,17.0,36,0.00,,,-99.99,,2013-03-27 18:02:00,
2013-03-27 14:12:00,51.0,25.0,-100.00,WNW,290,9.0,20.0,36,0.00,,,-99.99,,2013-03-27 18:12:00,
2013-03-27 14:22:00,51.0,25.0,-100.00,West,270,6.0,20.0,35,0.00,,,-99.99,,2013-03-27 18:22:00,
2013-03-27 14:32:00,52.0,25.0,-100.00,West,280,4.0,14.0,35,0.00,,,-99.99,,2013-03-27 18:32:00,
2013-03-27 14:42:00,51.0,26.0,-100.00,NW,305,8.0,16.0,37,0.00,,,-99.99,,2013-03-27 18:42:00,
2013-03-27 14:52:00,50.0,25.0,-100.00,WNW,290,6.0,17.0,37,0.00,,,-99.99,,2013-03-27 18:52:00,
2013-03-27 15:02:00,49.0,24.0,-100.00,WNW,300,6.0,15.0,37,0.00,,,-99.99,,2013-03-27 19:02:00,
2013-03-27 15:12:00,49.0,24.0,-100.00,West,275,6.0,13.0,37,0.00,,,-99.99,,2013-03-27 19:12:00,
2013-03-27 15:22:00,49.0,25.0,-100.00,NW,305,6.0,12.0,38,0.00,,,-99.99,,2013-03-27 19:22:00,
2013-03-27 15:32:00,49.0,25.0,-100.00,West,270,4.0,12.0,37,0.00,,,-99.99,,2013-03-27 19:32:00,
2013-03-27 15:42:00,49.0,25.0,-100.00,West,270,4.0,12.0,37,0.00,,,-99.99,,2013-03-27 19:42:00,
2013-03-27 15:52:00,50.0,24.0,-100.00,WSW,250,3.0,12.0,36,0.00,,,-99.99,,2013-03-27 19:52:00,
2013-03-27 16:02:00,50.0,24.0,-100.00,SW,215,5.0,12.0,36,0.00,,,-99.99,,2013-03-27 20:02:00,
2013-03-27 16:12:00,49.0,25.0,-100.00,West,275,3.0,14.0,37,0.00,,,-99.99,,2013-03-27 20:12:00,
2013-03-27 16:22:00,49.0,24.0,-100.00,WNW,285,5.0,18.0,37,0.00,,,-99.99,,2013-03-27 20:22:00,
2013-03-27 16:32:00,49.0,25.0,-100.00,West,275,4.0,12.0,37,0.00,,,-99.99,,2013-03-27 20:32:00,
2013-03-27 16:42:00,49.0,25.0,-100.00,NW,310,3.0,12.0,38,0.00,,,-99.99,,2013-03-27 20:42:00,
2013-03-27 16:52:00,51.0,25.0,-100.00,West,260,5.0,15.0,36,0.00,,,-99.99,,2013-03-27 20:52:00,
2013-03-27 17:02:00,49.0,25.0,-100.00,West,280,4.0,12.0,38,0.00,,,-99.99,,2013-03-27 21:02:00,
2013-03-27 17:12:00,50.0,25.0,-100.00,North,-999,-999.0,-999.0,38,-99.99,,,-99.99,,2013-03-27 21:12:00,
2013-03-27 17:22:00,50.0,26.0,-100.00,West,275,4.0,14.0,38,0.00,,,-99.99,,2013-03-27 21:22:00,
2013-03-27 17:32:00,49.0,26.0,-100.00,WNW,295,2.0,12.0,40,0.00,,,-99.99,,2013-03-27 21:32:00,
2013-03-27 17:43:00,48.0,27.0,-100.00,WNW,295,7.0,14.0,44,0.00,,,-99.99,,2013-03-27 21:43:00,
2013-03-27 17:52:00,47.0,27.0,-100.00,West,275,5.0,12.0,45,0.00,,,-99.99,,2013-03-27 21:52:00,
2013-03-27 18:03:00,47.0,27.0,-100.00,WNW,290,4.0,14.0,46,0.00,,,-99.99,,2013-03-27 22:03:00,
2013-03-27 18:12:00,47.0,28.0,-100.00,NW,315,4.0,11.0,47,0.00,,,-99.99,,2013-03-27 22:12:00,
2013-03-27 18:23:00,46.0,28.0,-100.00,WNW,300,6.0,11.0,47,0.00,,,-99.99,,2013-03-27 22:23:00,
2013-03-27 18:33:00,46.0,28.0,-100.00,WNW,300,6.0,16.0,48,0.00,,,-99.99,,2013-03-27 22:33:00,
2013-03-27 18:42:00,46.0,28.0,-100.00,WNW,295,5.0,13.0,50,0.00,,,-99.99,,2013-03-27 22:42:00,
2013-03-27 18:52:00,45.0,28.0,-100.00,WNW,300,3.0,11.0,50,0.00,,,-99.99,,2013-03-27 22:52:00,
2013-03-27 19:02:00,45.0,29.0,-100.00,West,270,4.0,11.0,52,0.00,,,-99.99,,2013-03-27 23:02:00,
2013-03-27 19:12:00,45.0,29.0,-100.00,NW,325,4.0,11.0,53,0.00,,,-99.99,,2013-03-27 23:12:00,
2013-03-27 19:22:00,44.0,30.0,-100.00,WNW,295,4.0,17.0,55,0.00,,,-99.99,,2013-03-27 23:22:00,
2013-03-27 19:32:00,44.0,30.0,-100.00,WNW,285,4.0,11.0,57,0.00,,,-99.99,,2013-03-27 23:32:00,
2013-03-27 19:42:00,44.0,30.0,-100.00,West,275,4.0,12.0,58,0.00,,,-99.99,,2013-03-27 23:42:00,
2013-03-27 19:52:00,43.0,30.0,-100.00,West,270,6.0,13.0,59,0.00,,,-99.99,,2013-03-27 23:52:00,
2013-03-27 20:02:00,43.0,31.0,-100.00,WNW,290,3.0,9.0,61,0.00,,,-99.99,,2013-03-28 00:02:00,
2013-03-27 20:12:00,43.0,30.0,-100.00,West,275,4.0,9.0,61,0.00,,,-99.99,,2013-03-28 00:12:00,
2013-03-27 20:22:00,43.0,31.0,-100.00,West,280,3.0,16.0,62,0.00,,,-99.99,,2013-03-28 00:22:00,
2013-03-27 20:32:00,43.0,31.0,-100.00,West,280,3.0,16.0,62,0.00,,,-99.99,,2013-03-28 00:32:00,
2013-03-27 20:43:00,42.0,31.0,-100.00,WNW,300,4.0,10.0,63,0.00,,,-99.99,,2013-03-28 00:43:00,
2013-03-27 20:52:00,42.0,31.0,-100.00,WNW,290,4.0,10.0,64,0.00,,,-99.99,,2013-03-28 00:52:00,
2013-03-27 21:02:00,42.0,31.0,-100.00,WNW,290,2.0,11.0,65,0.00,,,-99.99,,2013-03-28 01:02:00,
2013-03-27 21:12:00,42.0,32.0,-100.00,North,-999,-999.0,-999.0,69,-99.99,,,-99.99,,2013-03-28 01:12:00,
2013-03-27 21:22:00,41.0,33.0,-100.00,WNW,290,2.0,11.0,71,0.00,,,-99.99,,2013-03-28 01:22:00,
2013-03-27 21:32:00,41.0,33.0,-100.00,NW,310,6.0,12.0,73,0.00,,,-99.99,,2013-03-28 01:32:00,
2013-03-27 21:42:00,41.0,33.0,-100.00,WNW,295,4.0,9.0,74,0.00,,,-99.99,,2013-03-28 01:42:00,
2013-03-27 21:52:00,40.0,33.0,-100.00,WNW,285,4.0,11.0,75,0.00,,,-99.99,,2013-03-28 01:52:00,
2013-03-27 22:03:00,40.0,33.0,-100.00,WSW,255,4.0,11.0,75,0.00,,,-99.99,,2013-03-28 02:03:00,
2013-03-27 22:12:00,40.0,33.0,-100.00,West,270,3.0,9.0,76,0.00,,,-99.99,,2013-03-28 02:12:00,
2013-03-27 22:22:00,40.0,34.0,-100.00,West,270,1.0,10.0,76,0.00,,,-99.99,,2013-03-28 02:22:00,
2013-03-27 22:32:00,40.0,34.0,-100.00,North,5,1.0,5.0,77,0.00,,,-99.99,,2013-03-28 02:32:00,
2013-03-27 22:42:00,40.0,34.0,-100.00,North,5,1.0,5.0,77,0.00,,,-99.99,,2013-03-28 02:42:00,
2013-03-27 22:52:00,40.0,34.0,-100.00,North,5,1.0,5.0,77,0.00,,,-99.99,,2013-03-28 02:52:00,
2013-03-27 23:02:00,40.0,34.0,-100.00,WNW,285,4.0,8.0,77,0.00,,,-99.99,,2013-03-28 03:02:00,
2013-03-27 23:22:00,40.0,34.0,-100.00,North,355,1.0,9.0,79,0.00,,,-99.99,,2013-03-28 03:22:00,
2013-03-27 23:33:00,40.0,35.0,-100.00,NW,320,1.0,12.0,82,0.00,,,-99.99,,2013-03-28 03:33:00,
2013-03-27 23:43:00,39.0,35.0,-100.00,North,355,2.0,7.0,83,0.00,,,-99.99,,2013-03-28 03:43:00,
2013-03-27 23:52:00,39.0,35.0,-100.00,East,80,0.0,7.0,83,0.00,,,-99.99,,2013-03-28 03:52:00,